Location: Praha
(50.0830°N, 14.4670°E)
Time: 16:06:38
(UTC+02:00)

ISS - Pass Details

Date: 13 May 2022
Orbit: 414 x 421 km, 51.6° (Epoch: 28 May)

Event Time Altitude Azimuth Distance (km) Brightness Sun altitude
Rises 23:17:16 0° 240° (WSW) 2,351 0.0 -17.8°
Reaches altitude 10° 23:19:22 10° 236° (SW) 1,489 -1.1 -18.0°
Enters shadow 23:20:23 18° 232° (SW) 1,088 -1.8 -18.0°
Exits shadow 23:26:34 - 75° (ENE) 1,734 -0.7 -18.4°
Sets 23:28:04 0° 73° (ENE) 2,355 0.0 -18.5°
